Location: Carrer del Canonge
(41.4901°N, 2.2931°E)
Time: 03:38:24
(UTC+00:00)

Cosmos 2298 Rocket - Pass Details

Date: 18 September 2020
Orbit: 777 x 783 km, 74.0° (Epoch: 25 October)

Event Time Altitude Azimuth Distance (km) Brightness Sun altitude
Rises 19:55:26 0° 206° (SSW) 3,256 7.3 -22.8°
Reaches altitude 10° 19:57:50 10° 210° (SSW) 2,332 6.5 -23.2°
Maximum altitude 20:03:06 64° 292° (WNW) 864 4.4 -24.1°
Drops below altitude 10° 20:08:24 10° 14° (NNE) 2,347 6.6 -25.0°
Sets 20:10:50 0° 17° (NNE) 3,278 7.4 -25.4°
